Location: Unspecified
(0.0000°N, 0.0000°E)
Time: 23:20:18
(UTC+00:00)

Fuji - Pass Details

Date: 04 December 2022
Orbit: 1479 x 1496 km, 50.0° (Epoch: 04 February)

Event Time Altitude Azimuth Distance (km) Brightness Sun altitude
Rises 04:43:13 0° 201° (SSW) 4,624 ? -15.4°
Reaches altitude 10° 04:46:31 10° 193° (SSW) 3,641 ? -14.7°
Maximum altitude 04:54:51 39° 127° (SE) 2,100 ? -12.8°
Drops below altitude 10° 05:03:06 10° 62° (ENE) 3,624 ? -10.9°
Sets 05:06:21 0° 54° (NE) 4,600 ? -10.1°
